Time,TemperatureF,DewpointF,PressureIn,WindDirection,WindDirectionDegrees,WindSpeedMPH,WindSpeedGustMPH,Humidity,HourlyPrecipIn,Conditions,Clouds,dailyrainin,SoftwareType,DateUTC
2013-03-16 00:02:00,66.3,51.0,29.77,SW,221,4.0,13.0,58,0.00,,,0.00,weatherlink.com 1.10,2013-03-16 05:02:00,
2013-03-16 00:17:00,66.0,51.0,29.76,WSW,256,6.0,19.0,58,0.00,,,0.00,weatherlink.com 1.10,2013-03-16 05:17:00,
2013-03-16 00:32:00,65.2,50.0,29.76,West,263,7.0,16.0,59,0.00,,,0.00,weatherlink.com 1.10,2013-03-16 05:32:00,
2013-03-16 00:47:00,65.0,51.0,29.76,SW,234,5.0,12.0,60,0.00,,,0.00,weatherlink.com 1.10,2013-03-16 05:47:00,
2013-03-16 01:02:00,64.8,50.0,29.76,SW,219,4.0,13.0,60,0.00,,,0.00,weatherlink.com 1.10,2013-03-16 06:02:00,
2013-03-16 01:17:00,64.2,50.0,29.75,WSW,242,1.0,11.0,60,0.00,,,0.00,weatherlink.com 1.10,2013-03-16 06:17:00,
2013-03-16 01:32:00,64.2,50.0,29.75,SW,214,8.0,14.0,60,0.00,,,0.00,weatherlink.com 1.10,2013-03-16 06:32:00,
2013-03-16 01:47:00,63.9,50.0,29.75,SW,228,3.0,11.0,60,0.00,,,0.00,weatherlink.com 1.10,2013-03-16 06:47:00,
2013-03-16 02:02:00,63.7,49.0,29.75,SSW,207,1.0,13.0,60,0.00,,,0.00,weatherlink.com 1.10,2013-03-16 07:02:00,
2013-03-16 02:17:00,63.2,49.0,29.75,SW,236,5.0,14.0,61,0.00,,,0.00,weatherlink.com 1.10,2013-03-16 07:17:00,
2013-03-16 02:32:00,63.2,49.0,29.75,South,178,7.0,12.0,60,0.00,,,0.00,weatherlink.com 1.10,2013-03-16 07:32:00,
2013-03-16 02:47:00,62.7,49.0,29.75,WSW,250,4.0,13.0,61,0.00,,,0.00,weatherlink.com 1.10,2013-03-16 07:47:00,
2013-03-16 03:02:00,62.6,49.0,29.75,SW,228,4.0,15.0,61,0.00,,,0.00,weatherlink.com 1.10,2013-03-16 08:02:00,
2013-03-16 03:17:00,62.4,49.0,29.74,SSW,194,4.0,11.0,61,0.00,,,0.00,weatherlink.com 1.10,2013-03-16 08:17:00,
2013-03-16 03:32:00,62.2,48.0,29.74,WNW,282,5.0,11.0,60,0.00,,,0.00,weatherlink.com 1.10,2013-03-16 08:32:00,
2013-03-16 03:47:00,62.3,48.0,29.74,SW,230,9.0,12.0,60,0.00,,,0.00,weatherlink.com 1.10,2013-03-16 08:47:00,
2013-03-16 04:02:00,62.1,48.0,29.73,SW,230,0.0,13.0,60,0.00,,,0.00,weatherlink.com 1.10,2013-03-16 09:02:00,
2013-03-16 04:17:00,61.5,48.0,29.73,SW,214,4.0,11.0,61,0.00,,,0.00,weatherlink.com 1.10,2013-03-16 09:17:00,
2013-03-16 04:32:00,61.4,48.0,29.73,SW,228,1.0,12.0,61,0.00,,,0.00,weatherlink.com 1.10,2013-03-16 09:32:00,
2013-03-16 04:47:00,61.0,47.0,29.73,WSW,238,1.0,11.0,61,0.00,,,0.00,weatherlink.com 1.10,2013-03-16 09:47:00,
2013-03-16 05:02:00,60.8,48.0,29.73,SSW,205,4.0,11.0,62,0.00,,,0.00,weatherlink.com 1.10,2013-03-16 10:02:00,
2013-03-16 05:17:00,60.5,47.0,29.73,SW,216,4.0,11.0,62,0.00,,,0.00,weatherlink.com 1.10,2013-03-16 10:17:00,
2013-03-16 05:32:00,60.2,47.0,29.74,SW,216,2.0,10.0,63,0.00,,,0.00,weatherlink.com 1.10,2013-03-16 10:32:00,
2013-03-16 05:47:00,59.9,48.0,29.74,SW,229,4.0,10.0,64,0.00,,,0.00,weatherlink.com 1.10,2013-03-16 10:47:00,
2013-03-16 06:02:00,59.5,47.0,29.75,SSW,213,4.0,9.0,64,0.00,,,0.00,weatherlink.com 1.10,2013-03-16 11:02:00,
2013-03-16 06:17:00,59.1,47.0,29.75,SSW,200,2.0,10.0,65,0.00,,,0.00,weatherlink.com 1.10,2013-03-16 11:17:00,
2013-03-16 06:32:00,59.1,48.0,29.75,SW,221,13.0,13.0,66,0.00,,,0.00,weatherlink.com 1.10,2013-03-16 11:32:00,
2013-03-16 06:48:00,59.2,48.0,29.75,SW,225,4.0,11.0,66,0.00,,,0.00,weatherlink.com 1.10,2013-03-16 11:48:00,
2013-03-16 07:03:00,59.1,48.0,29.75,WSW,258,11.0,11.0,67,0.00,,,0.00,weatherlink.com 1.10,2013-03-16 12:03:00,
2013-03-16 07:18:00,58.8,48.0,29.75,SW,234,4.0,10.0,68,0.00,,,0.00,weatherlink.com 1.10,2013-03-16 12:18:00,
2013-03-16 07:33:00,58.8,49.0,29.76,SSW,199,2.0,15.0,69,0.00,,,0.00,weatherlink.com 1.10,2013-03-16 12:33:00,
2013-03-16 07:48:00,59.1,49.0,29.76,South,188,6.0,12.0,69,0.00,,,0.00,weatherlink.com 1.10,2013-03-16 12:48:00,
2013-03-16 08:03:00,60.0,50.0,29.76,West,279,6.0,15.0,69,0.00,,,0.00,weatherlink.com 1.10,2013-03-16 13:03:00,
2013-03-16 08:18:00,60.7,50.0,29.77,WSW,250,8.0,18.0,69,0.00,,,0.00,weatherlink.com 1.10,2013-03-16 13:18:00,
2013-03-16 08:33:00,61.2,51.0,29.77,SSW,211,7.0,22.0,69,0.00,,,0.00,weatherlink.com 1.10,2013-03-16 13:33:00,
2013-03-16 08:48:00,62.0,51.0,29.77,SW,226,7.0,13.0,68,0.00,,,0.00,weatherlink.com 1.10,2013-03-16 13:48:00,
2013-03-16 09:03:00,62.9,52.0,29.77,WSW,237,5.0,18.0,67,0.00,,,0.00,weatherlink.com 1.10,2013-03-16 14:03:00,
2013-03-16 09:18:00,64.0,52.0,29.77,West,261,14.0,19.0,66,0.00,,,0.00,weatherlink.com 1.10,2013-03-16 14:18:00,
2013-03-16 09:33:00,64.0,53.0,29.77,SW,224,5.0,12.0,67,0.00,,,0.00,weatherlink.com 1.10,2013-03-16 14:33:00,
2013-03-16 09:48:00,64.3,53.0,29.77,WSW,246,2.0,20.0,66,0.00,,,0.00,weatherlink.com 1.10,2013-03-16 14:48:00,
2013-03-16 10:03:00,65.4,53.0,29.77,West,274,6.0,13.0,65,0.00,,,0.00,weatherlink.com 1.10,2013-03-16 15:03:00,
2013-03-16 10:18:00,66.3,53.0,29.77,West,265,9.0,13.0,63,0.00,,,0.00,weatherlink.com 1.10,2013-03-16 15:18:00,
2013-03-16 10:33:00,68.3,54.0,29.77,West,260,13.0,15.0,60,0.00,,,0.00,weatherlink.com 1.10,2013-03-16 15:33:00,
2013-03-16 10:48:00,68.8,54.0,29.78,West,277,6.0,14.0,60,0.00,,,0.00,weatherlink.com 1.10,2013-03-16 15:48:00,
2013-03-16 11:03:00,69.0,54.0,29.78,WSW,257,1.0,14.0,59,0.00,,,0.00,weatherlink.com 1.10,2013-03-16 16:03:00,
2013-03-16 11:18:00,69.8,54.0,29.79,WSW,240,8.0,14.0,58,0.00,,,0.00,weatherlink.com 1.10,2013-03-16 16:18:00,
2013-03-16 11:33:00,69.8,54.0,29.79,West,267,4.0,14.0,57,0.00,,,0.00,weatherlink.com 1.10,2013-03-16 16:33:00,
2013-03-16 11:48:00,70.3,55.0,29.78,NW,308,12.0,12.0,59,0.00,,,0.00,weatherlink.com 1.10,2013-03-16 16:48:00,
2013-03-16 12:03:00,70.2,54.0,29.79,NW,317,1.0,13.0,57,0.00,,,0.00,weatherlink.com 1.10,2013-03-16 17:03:00,
2013-03-16 12:18:00,71.4,54.0,29.79,WNW,296,7.0,12.0,55,0.00,,,0.00,weatherlink.com 1.10,2013-03-16 17:18:00,
2013-03-16 12:33:00,71.0,54.0,29.80,NW,322,5.0,12.0,56,0.00,,,0.00,weatherlink.com 1.10,2013-03-16 17:33:00,
2013-03-16 12:48:00,71.5,54.0,29.80,SW,233,7.0,12.0,55,0.00,,,0.00,weatherlink.com 1.10,2013-03-16 17:48:00,
2013-03-16 13:04:00,72.0,54.0,29.80,NW,305,5.0,12.0,54,0.00,,,0.00,weatherlink.com 1.10,2013-03-16 18:04:00,
2013-03-16 13:19:00,72.2,54.0,29.80,West,277,8.0,13.0,54,0.00,,,0.00,weatherlink.com 1.10,2013-03-16 18:19:00,
2013-03-16 13:34:00,70.8,54.0,29.79,NW,315,4.0,11.0,56,0.00,,,0.00,weatherlink.com 1.10,2013-03-16 18:34:00,
2013-03-16 13:49:00,72.1,55.0,29.79,NW,305,8.0,13.0,56,0.00,,,0.00,weatherlink.com 1.10,2013-03-16 18:49:00,
2013-03-16 14:04:00,72.0,54.0,29.79,WSW,246,7.0,12.0,53,0.00,,,0.00,weatherlink.com 1.10,2013-03-16 19:04:00,
2013-03-16 14:19:00,71.8,56.0,29.78,WNW,302,5.0,11.0,57,0.00,,,0.00,weatherlink.com 1.10,2013-03-16 19:19:00,
2013-03-16 14:34:00,71.6,55.0,29.78,WNW,298,4.0,11.0,56,0.00,,,0.00,weatherlink.com 1.10,2013-03-16 19:34:00,
2013-03-16 14:49:00,70.8,54.0,29.78,NW,314,2.0,11.0,56,0.00,,,0.00,weatherlink.com 1.10,2013-03-16 19:49:00,
2013-03-16 15:19:00,71.5,56.0,29.78,WSW,240,4.0,10.0,58,0.00,,,0.00,weatherlink.com 1.10,2013-03-16 20:19:00,
2013-03-16 15:34:00,71.6,55.0,29.78,SW,227,6.0,9.0,56,0.00,,,0.00,weatherlink.com 1.10,2013-03-16 20:34:00,
2013-03-16 15:49:00,71.4,54.0,29.78,West,261,1.0,9.0,54,0.00,,,0.00,weatherlink.com 1.10,2013-03-16 20:49:00,
2013-03-16 16:04:00,71.0,54.0,29.78,NNW,332,3.0,8.0,56,0.00,,,0.00,weatherlink.com 1.10,2013-03-16 21:04:00,
2013-03-16 16:19:00,70.4,54.0,29.79,North,349,2.0,9.0,57,0.00,,,0.00,weatherlink.com 1.10,2013-03-16 21:19:00,
2013-03-16 16:34:00,70.1,54.0,29.79,NW,315,5.0,13.0,58,0.00,,,0.00,weatherlink.com 1.10,2013-03-16 21:34:00,
2013-03-16 16:49:00,67.5,53.0,29.80,North,5,9.0,19.0,60,0.00,,,0.00,weatherlink.com 1.10,2013-03-16 21:49:00,
2013-03-16 17:04:00,66.9,52.0,29.80,North,5,5.0,14.0,59,0.00,,,0.00,weatherlink.com 1.10,2013-03-16 22:04:00,
2013-03-16 17:19:00,65.7,51.0,29.79,NNW,334,15.0,18.0,60,0.00,,,0.00,weatherlink.com 1.10,2013-03-16 22:19:00,
2013-03-16 17:49:00,61.8,49.0,29.80,NNE,33,8.0,12.0,64,0.00,,,0.00,weatherlink.com 1.10,2013-03-16 22:49:00,
2013-03-16 18:04:00,60.0,49.0,29.81,NE,34,6.0,15.0,66,0.00,,,0.00,weatherlink.com 1.10,2013-03-16 23:04:00,
2013-03-16 18:19:00,58.7,48.0,29.82,NE,40,6.0,14.0,67,0.00,,,0.00,weatherlink.com 1.10,2013-03-16 23:19:00,
2013-03-16 18:34:00,57.4,47.0,29.84,North,360,7.0,14.0,69,0.00,,,0.00,weatherlink.com 1.10,2013-03-16 23:34:00,
2013-03-16 18:49:00,56.4,47.0,29.85,NNW,345,8.0,14.0,70,0.00,,,0.00,weatherlink.com 1.10,2013-03-16 23:49:00,
2013-03-16 19:04:00,55.6,46.0,29.86,North,11,7.0,14.0,69,0.00,,,0.00,weatherlink.com 1.10,2013-03-17 00:04:00,
2013-03-16 19:19:00,54.4,45.0,29.86,North,5,9.0,19.0,71,0.00,,,0.00,weatherlink.com 1.10,2013-03-17 00:19:00,
2013-03-16 19:34:00,53.5,44.0,29.86,NE,42,5.0,16.0,71,0.00,,,0.00,weatherlink.com 1.10,2013-03-17 00:34:00,
2013-03-16 19:49:00,52.6,43.0,29.86,NE,36,5.0,13.0,71,0.00,,,0.00,weatherlink.com 1.10,2013-03-17 00:49:00,
2013-03-16 20:04:00,51.9,43.0,29.87,ENE,69,6.0,11.0,72,0.00,,,0.00,weatherlink.com 1.10,2013-03-17 01:04:00,
2013-03-16 20:19:00,51.6,43.0,29.86,East,84,6.0,12.0,73,0.00,,,0.00,weatherlink.com 1.10,2013-03-17 01:19:00,
2013-03-16 20:34:00,51.4,43.0,29.87,NE,45,7.0,12.0,74,0.00,,,0.00,weatherlink.com 1.10,2013-03-17 01:34:00,
2013-03-16 20:49:00,51.4,43.0,29.88,NNE,28,9.0,11.0,74,0.00,,,0.00,weatherlink.com 1.10,2013-03-17 01:49:00,
2013-03-16 21:04:00,51.3,43.0,29.88,NNE,19,7.0,13.0,74,0.00,,,0.00,weatherlink.com 1.10,2013-03-17 02:04:00,
2013-03-16 21:19:00,51.2,44.0,29.88,ENE,63,5.0,11.0,75,0.00,,,0.00,weatherlink.com 1.10,2013-03-17 02:19:00,
2013-03-16 21:34:00,50.9,43.0,29.89,ENE,61,7.0,11.0,74,0.00,,,0.00,weatherlink.com 1.10,2013-03-17 02:34:00,
2013-03-16 21:49:00,50.2,43.0,29.89,ENE,61,6.0,10.0,75,0.00,,,0.00,weatherlink.com 1.10,2013-03-17 02:49:00,
2013-03-16 22:05:00,49.8,42.0,29.91,North,355,6.0,13.0,75,0.00,,,0.00,weatherlink.com 1.10,2013-03-17 03:05:00,
2013-03-16 22:20:00,49.5,42.0,29.91,NE,46,2.0,10.0,76,0.00,,,0.00,weatherlink.com 1.10,2013-03-17 03:20:00,
2013-03-16 22:35:00,49.2,42.0,29.91,NE,55,7.0,13.0,76,0.00,,,0.00,weatherlink.com 1.10,2013-03-17 03:35:00,
2013-03-16 22:50:00,48.8,42.0,29.91,ENE,71,1.0,7.0,77,0.00,,,0.00,weatherlink.com 1.10,2013-03-17 03:50:00,
2013-03-16 23:05:00,48.4,42.0,29.90,NE,38,6.0,9.0,77,0.00,,,0.00,weatherlink.com 1.10,2013-03-17 04:05:00,
2013-03-16 23:20:00,48.1,42.0,29.90,NE,38,7.0,9.0,78,0.00,,,0.00,weatherlink.com 1.10,2013-03-17 04:20:00,
2013-03-16 23:35:00,47.8,42.0,29.90,ENE,77,4.0,7.0,79,0.00,,,0.00,weatherlink.com 1.10,2013-03-17 04:35:00,
2013-03-16 23:50:00,47.6,42.0,29.89,ENE,76,2.0,8.0,80,0.00,,,0.00,weatherlink.com 1.10,2013-03-17 04:50:00,